Location: Unspecified
(52.1971°N, 0.0000°E)
Time: 17:31:56
(UTC+00:00)

ISS - Pass Details

Date: 24 May 2019
Orbit: 408 x 418 km, 51.6° (Epoch: 25 June)

Event Time Altitude Azimuth Distance (km) Brightness Sun altitude
Rises 22:07:35 0° 274° (W) 2,359 0.5 -13.2°
Reaches altitude 10° 22:09:41 10° 273° (W) 1,498 -0.6 -13.3°
Maximum altitude 22:13:02 79° 188° (S) 432 -3.9 -13.5°
Enters shadow 22:15:59 13° 101° (ESE) 1,331 -1.6 -13.7°
